Location: T�bingen+AIT
(48.5342°N, 9.0700°E)
Time: 20:29:25
(UTC+02:00)

Cosmos 1743 - Pass Details

Date: 14 September 2017
Orbit: 513 x 529 km, 82.5° (Epoch: 20 September)

Event Time Altitude Azimuth Distance (km) Brightness Sun altitude
Rises 20:23:02 0° 206° (SSW) 2,623 6.4 -8.1°
Reaches altitude 10° 20:25:14 10° 213° (SSW) 1,743 5.6 -8.5°
Maximum altitude 20:28:51 40° 285° (WNW) 771 4.3 -9.0°
Drops below altitude 10° 20:32:32 10° 356° (N) 1,766 5.7 -9.6°
Sets 20:34:47 0° 4° (N) 2,662 6.5 -10.0°
